SCP
0 0 0 0 -0 -0 0 -0 -0 -0 0 -0 0 -0 0 0 0 0 -0 0 -0 -0 0 -0 -0 -0 0 0 0 0 0 0 0 -0 -0 -0 -0 0 -0 -0 0 -0 -0 0 0 0 0 0 -0
0 0 0 0 0 0 0 0 0 0 -0 0 -0 -0 -0 0 -0 -0 -0 -0 -0 -0 0 -0 -0 0 0 -0 0 0 -0 -0 -0 -0 0 -0 -0 -0 -0 -0 -0 -0 -0 0 0 0 0 0 0
1 0 0 -0 -0 -0 0 0 0 0 -0 0 -0 0 0 -0 -0 0 -0 -0 -0 -0 -0 -0 -0 -0 -0 -0 0 -0 -0 -0 -0 -0 -0 -0 -0 -0 -0 -0 -0 -0 -0 0 0 0 0 0 0
1 0 -0 -0 -0 -0 0 0 -0 -0 0 0 -0 -0 -0 -0 0 0 -0 -0 -0 -0 -0 -0 -0 -0 -0 -0 -0 -0 -0 -0 -0 -0 -0 -0 -0 -0 -0 -0 -0 -0 -0 -0 -0 0 0 0 0
0 0 -0 0 0 0 0 0 0 0 0 0 -0 0 -0 0 -0 -0 -0 -0 -0 -0 -0 -0 -0 -0 -0 -0 -0 -0 -0 -0 -0 -0 -0 -0 -0 -0 -0 -0 -0 -0 -0 -0 -0 -0 0 0 0
0 0 -0 0 0 0 0 0 0 0 0 0 -0 0 0 -0 -0 -0 -0 -0 -0 -0 -0 -0 -0 -0 -0 -0 -0 -0 -0 -0 -0 -0 -0 -0 -0 -0 -0 -0 -0 -0 -0 -0 -0 -0 -0 -0 -0
0 0 0 0 0 0 0 0 0 0 0 0 0 0 0 -0 -0 -0 -0 -0 -0 -0 -0 -0 -0 -0 -0 -0 -0 -0 -0 -0 -0 -0 -0 -0 -0 -0 -0 -0 -0 -0 -0 -0 -0 -0 -0 -0 -0
-0 0 0 0 0 0 0 0 0 0 0 0 0 0 -0 -0 -0 -0 -0 -0 -0 -0 -0 0 0 0 0 -0 -0 -0 -0 -0 -0 -0 -0 -0 -0 -0 -0 -0 -0 -0 -0 -0 -0 -0 -0 -0 -0
0 0 0 0 0 -0 -0 0 0 0 0 0 0 0 -0 -0 -1 -0 -0 -0 -0 -0 -0 -0 0 0 0 0 -0 -0 -0 -0 -0 -0 -0 -0 0 -0 -0 -0 -0 -0 -0 -0 -0 -0 -0 -0 -0
0 0 0 0 0 -0 0 0 0 0 0 0 0 0 -0 -0 -0 -0 -0 -0 -0 -0 -0 -0 -0 0 0 0 0 0 -0 -0 -0 0 -0 0 0 0 -0 -0 -0 -0 -0 -0 -0 0 -0 -0 0
0 0 0 0 0 0 0 -0 0 0 0 0 -0 -0 0 -0 -0 -0 -0 -0 -0 -0 -0 -0 0 0 0 0 0 0 0 0 -0 -0 0 0 0 -0 0 0 0 -0 -0 0 -0 0 -0 0 0
0 0 0 0 0 0 0 0 -0 0 0 0 -0 0 0 -0 -0 -0 -0 -0 -0 -0 -0 0 0 0 0 0 0 0 0 0 0 -0 -0 0 0 0 0 0 0 0 0 0 0 0 -0 0 0
0 -0 -0 -0 0 0 0 0 0 0 0 0 -0 0 0 -0 -0 -0 -0 -0 -0 -0 -0 -0 -0 0 0 0 -0 0 0 0 0 -0 -0 -0 -0 -0 0 0 0 0 0 0 0 0 0 0 0
0 -0 -0 -0 -0 0 0 0 0 0 1 0 0 0 0 -0 -0 -0 0 -0 -0 -0 -0 -0 -0 -0 -0 -0 -0 0 0 -0 0 0 -0 -0 -0 -0 -0 -0 0 0 0 0 -0 0 0 0 0
-0 0 0 -0 -0 0 0 0 0 0 0 0 -0 0 0 0 0 -0 -0 -0 -0 0 0 -0 -0 -0 -0 0 0 0 0 0 0 0 0 -0 -0 -0 -0 -0 -0 0 0 -0 0 0 0 0 0
-0 -0 -0 -0 -0 0 0 0 0 0 0 0 0 -0 0 0 0 0 0 -0 0 -0 -0 0 0 0 0 0 0 0 0 0 0 0 0 0 0 0 0 0 0 0 0 0 0 0 0 0 0
0 0 -0 -0 -0 -0 0 0 0 0 0 0 0 0 0 0 -0 0 0 0 -0 0 -0 -0 -0 -0 0 0 0 0 0 0 0 0 0 0 0 0 0 0 0 0 0 0 0 0 0 0 0
0 0 0 0 0 -0 -0 0 0 -0 0 0 0 0 0 0 0 0 0 0 0 0 0 0 -0 -0 -0 0 -0 -0 -0 -0 -0 0 0 0 0 0 0 0 0 0 0 -0 0 0 0 0 0
0 0 0 0 0 0 0 0 -0 -0 0 0 0 0 -0 0 0 0 0 0 0 0 0 0 0 0 0 0 0 -0 -0 -0 -0 0 0 0 0 0 0 0 0 0 0 0 0 0 0 0 0
0 0 0 -0 -0 -0 0 0 0 -0 -0 0 0 0 -0 0 0 0 -0 0 0 0 0 0 0 0 0 0 0 0 -0 -0 0 0 -0 -0 0 0 0 0 -0 -0 0 0 0 0 0 0 0
0 0 0 -0 -0 -0 0 0 0 -0 0 0 0 0 -0 -0 -0 -0 -0 -0 0 0 0 0 0 0 0 -0 0 0 0 -0 -0 -0 -0 0 0 0 0 -0 -0 -0 0 0 0 0 0 0 0
0 0 0 0 -0 0 0 -0 0 0 0 0 0 0 0 -0 -0 -0 -0 -0 0 0 0 0 0 0 0 0 0 0 0 0 0 0 0 0 0 0 0 0 0 -0 -0 0 0 0 0 0 0
0 0 0 0 0 0 0 0 0 0 0 0 0 0 -0 -0 -0 -0 -0 -0 -0 -0 -0 0 0 0 -0 0 0 0 0 0 0 0 0 0 0 0 0 0 -0 -0 -0 -0 0 -0 -0 0 0
0 0 0 0 0 0 -0 -0 -0 0 0 0 0 -0 -0 0 -0 0 -0 -0 -0 -0 -0 0 -0 0 0 0 0 0 0 0 0 0 0 0 0 0 0 0 0 -0 -0 -0 -0 -0 -0 0 0
0 0 0 0 0 0 0 0 -0 -0 -0 0 -0 -0 -0 0 -0 -0 0 -0 -0 -1 -0 -0 0 0 0 0 0 0 0 0 0 0 0 0 0 0 -0 0 0 0 -0 0 0 -0 -0 -0 0
0 0 0 0 0 0 0 0 0 0 0 0 -0 -0 -0 0 -0 -0 0 0 -1 -1 -0 -0 0 0 0 0 0 0 0 0 0 0 0 0 -0 0 -0 -0 -0 -0 -0 0 0 0 0 0 -0
0 0 0 0 0 0 0 0 0 0 0 -0 -0 -0 -0 0 0 -0 -0 -1 -1 -0 -0 0 0 0 0 0 0 0 0 0 0 0 0 -0 -0 -0 0 0 -0 -0 -0 -0 0 -0 -0 0 0
0 0 0 0 0 -0 -0 0 -0 0 0 0 0 -0 -0 0 0 -0 -0 -0 -0 -0 -0 0 0 0 0 0 0 0 0 0 0 0 0 -0 0 0 0 0 -0 -0 -0 -0 0 -0 -0 -0 0
0 0 0 0 0 0 0 0 0 0 0 0 -0 0 0 0 -0 -1 -0 -0 -0 -0 -0 0 0 0 0 0 0 0 0 0 0 0 0 0 0 0 0 0 -0 -0 -0 -0 0 -0 -0 -0 0
0 0 0 0 0 0 0 0 0 0 0 0 0 0 0 -0 0 -0 -0 -0 -1 -0 -0 -0 0 0 0 0 0 0 0 0 0 0 0 0 0 0 0 0 0 -0 0 0 0 0 -0 -0 0
Wind_Speed_500mb
4 5 9 6 8 10 8 18 8 7 9 8 34 31 16 10 4 8 45 46 56 51 47 50 45 41 39 40 38 37 35 33 35 37 35 31 32 33 33 32 29 28 27 27 26 24 25 26 25
2 7 11 8 9 14 14 14 15 24 13 26 37 35 19 9 24 55 67 47 53 52 50 51 46 42 41 41 37 36 35 35 35 35 35 32 30 29 31 32 29 26 27 27 27 27 27 26 27
4 11 9 5 5 10 8 7 6 20 23 11 13 19 11 16 55 69 55 57 56 53 50 50 46 42 40 41 38 36 35 35 33 32 30 31 31 29 27 28 27 25 25 25 25 25 27 26 27
6 7 5 7 19 10 10 5 16 35 25 26 43 15 25 38 53 48 56 58 57 53 48 47 46 43 40 39 37 36 35 34 32 32 32 31 29 28 28 26 23 23 22 22 23 24 26 27 28
10 9 7 9 13 7 9 19 21 8 13 26 39 19 27 37 42 53 50 56 56 52 47 47 46 43 41 40 39 35 32 29 28 27 27 26 26 26 23 20 20 19 20 21 19 23 25 25 26
7 7 11 9 11 8 4 10 17 26 30 38 37 29 12 53 57 54 41 49 47 47 44 45 46 44 42 40 35 33 28 27 25 25 24 24 23 22 20 18 19 17 17 19 18 20 25 28 27
10 7 22 17 7 8 5 10 4 20 31 21 38 15 40 63 56 47 36 47 37 35 43 45 47 44 41 38 33 31 26 21 19 18 19 19 17 15 14 14 13 15 17 17 16 18 21 24 25
9 7 21 12 14 8 13 5 16 5 1 36 58 16 44 68 65 48 41 41 35 34 37 43 45 43 43 39 33 28 24 20 16 13 13 13 12 11 9 7 6 9 12 14 17 16 18 20 19
22 3 12 17 18 9 18 2 3 10 7 16 27 46 72 76 68 61 58 48 38 40 37 39 39 40 39 36 30 24 19 15 12 11 9 8 7 9 6 6 7 7 12 17 16 16 17 17 17
13 8 14 17 17 13 20 14 11 11 30 28 29 57 75 68 69 69 61 50 41 36 39 37 38 37 35 30 22 18 15 13 10 13 12 9 9 8 4 10 15 16 16 21 26 20 19 18 17
9 11 12 10 30 44 26 12 11 20 11 23 55 68 67 61 71 68 59 44 31 22 33 33 32 32 33 33 19 17 20 13 5 8 12 10 12 7 12 16 18 18 11 15 22 29 29 24 20
11 26 28 24 39 29 23 32 16 20 20 40 61 64 60 62 70 67 56 47 41 26 33 32 36 32 32 23 16 17 15 9 6 5 7 10 15 13 17 19 20 17 16 13 21 21 22 26 18
7 8 37 51 41 50 40 19 19 12 32 43 60 58 62 59 60 61 51 44 42 35 33 35 39 35 26 23 21 17 13 17 18 12 11 12 16 17 21 20 19 21 18 20 22 25 24 23 22
24 26 32 43 37 38 24 14 13 29 52 52 52 57 62 59 61 64 61 55 53 39 36 40 44 34 27 25 23 19 16 16 14 19 18 18 18 19 26 27 25 20 24 20 24 24 25 29 29
34 13 14 50 49 18 46 10 12 55 59 62 49 63 68 65 63 68 68 61 60 41 35 43 45 36 32 26 29 27 23 22 14 15 19 23 25 27 31 29 30 27 23 25 25 26 27 30 32
13 7 8 7 42 19 18 11 31 30 53 64 54 56 60 68 67 66 66 62 59 54 43 41 50 46 37 28 35 41 40 33 26 22 19 26 31 34 42 40 38 32 27 28 27 25 27 33 34
11 7 6 6 34 21 20 19 44 50 64 60 57 55 56 64 61 59 63 68 54 49 40 49 51 48 40 34 27 27 46 45 35 24 22 24 24 23 41 51 42 35 32 29 25 28 33 38 39
6 12 5 2 12 7 8 16 39 64 60 55 63 52 51 61 70 56 56 65 56 51 46 47 53 48 41 38 23 20 21 26 25 26 20 24 25 24 37 41 36 36 24 28 27 32 35 40 43
15 15 6 10 13 9 14 31 45 66 51 32 48 51 39 49 66 66 58 60 61 46 51 39 49 52 46 32 31 21 15 21 24 22 20 20 20 26 33 26 16 19 24 26 28 29 36 41 40
25 13 13 13 26 6 14 8 33 45 55 55 51 46 40 31 56 70 65 63 66 39 42 43 44 61 45 29 22 19 15 19 19 28 17 9 14 21 23 20 11 16 13 30 23 24 33 39 37
19 6 3 9 20 7 6 9 12 21 11 28 37 40 29 29 50 64 67 72 64 43 36 35 33 50 42 30 25 22 28 17 10 13 8 6 12 17 19 17 7 14 27 33 27 26 37 37 35
15 16 8 8 21 8 9 8 8 10 11 15 27 45 29 21 39 59 62 70 75 49 35 26 28 39 44 35 27 22 22 21 9 7 3 7 12 13 20 12 15 28 30 28 28 30 36 37 40
24 15 14 6 9 7 19 8 8 7 16 26 36 49 40 45 25 63 53 67 74 49 37 26 24 31 32 31 27 17 14 17 15 4 3 5 8 4 10 17 22 22 20 20 23 30 33 34 42
16 2 15 8 6 7 9 8 11 11 14 15 39 50 62 24 15 41 47 55 71 49 42 31 30 33 32 29 31 17 11 16 10 8 6 6 7 8 19 24 18 20 21 22 24 28 34 33 38
6 11 4 7 8 9 6 3 16 14 8 22 49 64 81 54 29 52 53 61 69 56 45 35 33 34 35 32 32 23 15 19 18 12 5 6 8 15 19 20 23 22 24 24 26 29 35 33 39
13 19 12 11 8 6 6 9 12 9 16 19 60 62 74 59 40 60 51 73 69 57 46 39 40 38 37 34 28 26 23 22 16 10 6 1 10 8 14 26 29 29 26 22 21 28 35 41 36
10 8 19 13 10 9 8 14 13 11 3 23 64 61 75 64 59 54 68 80 67 62 55 45 45 41 38 33 30 28 25 18 11 8 12 21 21 20 21 25 32 34 31 25 21 31 39 38 34
14 12 7 3 8 1 10 8 9 10 6 22 23 47 64 72 60 77 87 85 71 58 48 37 38 40 36 34 29 29 25 14 19 18 15 18 20 18 26 25 29 30 27 30 24 35 44 40 33
5 3 10 11 9 11 6 10 13 17 5 19 40 32 36 57 93 91 87 74 63 55 44 36 31 38 38 34 32 30 24 26 19 10 11 11 14 21 30 29 26 28 34 29 25 39 46 42 37
16 20 16 11 11 4 10 12 5 10 3 26 47 68 60 62 61 90 82 75 61 54 45 37 31 42 39 32 37 35 32 24 16 12 8 2 12 21 25 26 23 28 30 32 27 41 42 44 45
Wind_Direction_500mb
92 53 16 17 56 65 17 4 36 68 48 56 83 104 103 46 132 163 148 158 157 155 155 155 146 137 133 131 130 125 123 122 121 123 123 119 119 116 120 127 128 126 125 125 126 126 127 124 122
127 16 23 6 68 65 323 311 47 109 130 119 87 77 62 80 98 134 149 158 156 153 152 152 147 142 138 136 134 126 121 123 123 122 125 125 121 120 123 124 123 125 125 124 123 126 127 127 123
65 48 5 59 148 137 177 289 350 137 145 148 102 73 78 98 133 142 148 157 158 155 152 151 148 147 142 142 138 133 126 125 126 130 131 132 133 128 126 128 129 126 129 129 129 128 129 131 138
91 98 57 55 103 14 153 301 315 109 109 97 114 75 92 133 143 152 148 156 159 155 153 152 153 152 150 145 143 141 138 133 132 135 134 135 130 132 130 130 132 125 136 133 130 132 133 135 142
58 110 48 51 44 71 54 26 14 123 82 124 114 113 122 157 144 143 149 160 160 156 157 156 159 156 155 154 150 145 142 142 137 133 134 138 137 138 137 133 135 137 141 147 140 137 139 145 152
303 84 53 19 74 345 35 30 45 56 127 106 107 111 106 154 144 148 151 158 157 156 160 159 158 160 161 159 153 149 150 149 145 146 143 142 142 144 144 144 143 141 146 156 160 154 146 148 157
166 102 131 132 120 341 293 46 74 132 137 126 131 111 138 150 145 154 149 148 149 157 161 162 162 163 163 162 161 158 160 153 151 150 146 146 147 147 148 150 154 161 163 160 166 170 169 163 159
222 138 121 178 198 218 273 340 144 132 99 136 140 154 158 158 158 160 151 153 156 164 168 164 164 166 168 171 171 169 169 165 163 162 164 149 151 152 161 173 184 192 188 191 187 181 182 188 187
217 136 139 164 186 206 231 307 136 46 142 184 161 157 158 159 164 163 159 162 169 169 174 169 168 170 172 177 177 176 176 178 180 188 188 200 196 187 194 245 255 269 238 215 204 203 202 200 209
160 99 206 176 143 171 173 208 153 118 87 97 130 147 154 164 168 164 166 166 160 169 180 178 174 173 175 175 173 170 178 182 193 212 211 214 206 226 246 283 279 277 262 246 229 224 216 221 229
187 157 176 171 162 147 146 137 120 104 52 118 137 153 162 161 168 172 174 175 166 167 181 181 176 173 174 160 157 188 168 152 149 207 212 224 231 266 281 286 280 261 258 240 235 233 234 241 244
0 146 165 142 148 141 149 141 104 130 137 143 154 157 170 162 173 177 178 177 171 177 170 165 166 162 171 176 160 152 177 188 188 211 242 243 262 275 315 289 271 260 251 257 243 243 232 238 246
333 266 163 159 154 147 135 87 68 67 111 153 161 167 178 183 182 188 190 192 187 181 184 187 184 182 177 179 183 198 226 261 257 255 281 279 292 302 301 293 274 278 266 258 251 246 239 242 245
323 303 123 160 163 146 122 84 98 112 127 147 169 182 188 190 189 190 193 195 194 195 194 196 194 195 191 191 191 218 237 265 249 260 275 286 293 302 303 307 300 294 286 274 257 255 256 255 252
330 306 326 159 164 155 114 36 160 149 146 158 186 189 200 201 200 199 199 202 194 189 202 205 199 197 202 204 206 218 227 251 246 260 272 283 301 291 299 307 311 302 279 280 274 262 259 261 257
344 27 352 138 170 198 168 186 192 156 155 176 193 209 201 206 208 210 207 203 180 187 201 195 197 199 207 215 225 226 231 240 249 264 296 290 281 278 284 288 290 294 284 279 281 272 268 266 264
358 321 280 337 192 150 212 140 215 186 176 185 183 199 201 203 211 211 206 199 189 204 201 205 197 196 207 222 244 237 233 233 249 258 278 281 281 316 300 283 278 289 293 283 284 281 278 278 271
308 309 321 349 338 170 166 135 178 199 185 197 192 174 180 193 200 201 211 197 201 191 199 217 203 206 215 223 232 222 212 209 220 248 257 275 291 324 322 306 275 272 274 284 299 298 291 280 275
279 257 317 278 292 137 229 136 178 193 199 195 184 192 197 186 191 196 196 199 201 211 208 200 210 216 218 221 223 222 215 210 235 249 272 280 311 322 319 343 294 274 297 318 301 300 298 292 290
291 261 328 320 288 160 206 203 178 186 201 194 180 195 207 206 194 194 198 204 208 218 219 218 222 217 213 214 222 213 225 245 253 230 279 284 324 326 345 350 11 0 348 335 320 313 313 303 297
266 276 284 309 306 308 187 69 144 210 165 163 168 196 198 195 194 200 205 207 211 209 206 216 210 215 213 209 207 226 236 244 191 227 266 308 347 340 337 338 344 344 339 340 339 322 333 318 307
255 207 168 198 302 234 27 286 251 187 160 180 187 183 198 167 179 191 205 211 214 210 197 197 199 206 211 209 217 222 231 242 243 183 259 0 343 323 342 27 343 343 334 331 332 335 330 331 319
246 212 210 260 251 69 345 68 239 142 201 205 204 192 194 176 186 186 200 214 219 211 201 199 192 185 190 206 210 213 220 208 200 203 248 305 310 331 28 1 345 336 344 350 350 352 341 340 333
237 204 45 26 91 66 229 133 284 197 198 189 212 197 201 194 183 205 193 210 220 202 199 201 198 188 187 199 211 212 208 190 187 146 141 83 33 56 4 0 356 355 357 355 349 348 356 347 345
131 66 23 354 358 219 235 162 239 258 241 151 187 193 204 223 223 186 191 200 202 195 197 207 204 195 192 202 213 211 177 172 167 160 202 312 348 2 1 15 11 2 353 348 353 359 8 2 2
185 152 150 214 210 239 344 232 261 233 301 180 187 201 205 213 203 189 194 196 197 191 196 202 204 203 198 199 190 176 172 163 170 177 209 311 339 21 43 29 19 9 359 352 353 5 11 15 8
246 123 181 105 346 78 238 283 332 292 99 74 170 201 202 206 191 192 197 196 194 191 195 193 192 192 183 177 169 171 180 175 164 164 115 89 54 37 20 14 13 8 13 8 5 6 1 355 353
159 170 108 354 129 2 290 283 238 313 183 47 144 158 178 191 193 186 193 193 194 196 190 184 189 183 177 175 174 179 180 176 146 120 82 48 24 21 6 358 10 12 10 11 18 7 2 1 359
318 136 72 124 137 163 227 267 218 205 32 72 129 144 131 182 177 183 183 187 191 189 187 181 181 186 178 173 176 183 175 156 133 100 59 41 5 352 347 350 355 11 8 14 8 359 1 3 1
205 190 152 128 238 186 147 264 179 175 197 120 131 139 146 204 186 179 179 181 183 185 184 187 183 179 175 176 170 161 145 139 132 152 171 11 345 331 340 344 345 354 354 0 351 347 352 358 359
Wind_Speed_850mb
4 5 9 6 8 10 8 18 8 7 9 8 34 31 16 10 4 8 45 46 56 51 47 50 45 41 39 40 38 37 35 33 35 37 35 31 32 33 33 32 29 28 27 27 26 24 25 26 25
2 7 11 8 9 14 14 14 15 24 13 26 37 35 19 9 24 55 67 47 53 52 50 51 46 42 41 41 37 36 35 35 35 35 35 32 30 29 31 32 29 26 27 27 27 27 27 26 27
4 11 9 5 5 10 8 7 6 20 23 11 13 19 11 16 55 69 55 57 56 53 50 50 46 42 40 41 38 36 35 35 33 32 30 31 31 29 27 28 27 25 25 25 25 25 27 26 27
6 7 5 7 19 10 10 5 16 35 25 26 43 15 25 38 53 48 56 58 57 53 48 47 46 43 40 39 37 36 35 34 32 32 32 31 29 28 28 26 23 23 22 22 23 24 26 27 28
10 9 7 9 13 7 9 19 21 8 13 26 39 19 27 37 42 53 50 56 56 52 47 47 46 43 41 40 39 35 32 29 28 27 27 26 26 26 23 20 20 19 20 21 19 23 25 25 26
7 7 11 9 11 8 4 10 17 26 30 38 37 29 12 53 57 54 41 49 47 47 44 45 46 44 42 40 35 33 28 27 25 25 24 24 23 22 20 18 19 17 17 19 18 20 25 28 27
10 7 22 17 7 8 5 10 4 20 31 21 38 15 40 63 56 47 36 47 37 35 43 45 47 44 41 38 33 31 26 21 19 18 19 19 17 15 14 14 13 15 17 17 16 18 21 24 25
9 7 21 12 14 8 13 5 16 5 1 36 58 16 44 68 65 48 41 41 35 34 37 43 45 43 43 39 33 28 24 20 16 13 13 13 12 11 9 7 6 9 12 14 17 16 18 20 19
22 3 12 17 18 9 18 2 3 10 7 16 27 46 72 76 68 61 58 48 38 40 37 39 39 40 39 36 30 24 19 15 12 11 9 8 7 9 6 6 7 7 12 17 16 16 17 17 17
13 8 14 17 17 13 20 14 11 11 30 28 29 57 75 68 69 69 61 50 41 36 39 37 38 37 35 30 22 18 15 13 10 13 12 9 9 8 4 10 15 16 16 21 26 20 19 18 17
9 11 12 10 30 44 26 12 11 20 11 23 55 68 67 61 71 68 59 44 31 22 33 33 32 32 33 33 19 17 20 13 5 8 12 10 12 7 12 16 18 18 11 15 22 29 29 24 20
11 26 28 24 39 29 23 32 16 20 20 40 61 64 60 62 70 67 56 47 41 26 33 32 36 32 32 23 16 17 15 9 6 5 7 10 15 13 17 19 20 17 16 13 21 21 22 26 18
7 8 37 51 41 50 40 19 19 12 32 43 60 58 62 59 60 61 51 44 42 35 33 35 39 35 26 23 21 17 13 17 18 12 11 12 16 17 21 20 19 21 18 20 22 25 24 23 22
24 26 32 43 37 38 24 14 13 29 52 52 52 57 62 59 61 64 61 55 53 39 36 40 44 34 27 25 23 19 16 16 14 19 18 18 18 19 26 27 25 20 24 20 24 24 25 29 29
34 13 14 50 49 18 46 10 12 55 59 62 49 63 68 65 63 68 68 61 60 41 35 43 45 36 32 26 29 27 23 22 14 15 19 23 25 27 31 29 30 27 23 25 25 26 27 30 32
13 7 8 7 42 19 18 11 31 30 53 64 54 56 60 68 67 66 66 62 59 54 43 41 50 46 37 28 35 41 40 33 26 22 19 26 31 34 42 40 38 32 27 28 27 25 27 33 34
11 7 6 6 34 21 20 19 44 50 64 60 57 55 56 64 61 59 63 68 54 49 40 49 51 48 40 34 27 27 46 45 35 24 22 24 24 23 41 51 42 35 32 29 25 28 33 38 39
6 12 5 2 12 7 8 16 39 64 60 55 63 52 51 61 70 56 56 65 56 51 46 47 53 48 41 38 23 20 21 26 25 26 20 24 25 24 37 41 36 36 24 28 27 32 35 40 43
15 15 6 10 13 9 14 31 45 66 51 32 48 51 39 49 66 66 58 60 61 46 51 39 49 52 46 32 31 21 15 21 24 22 20 20 20 26 33 26 16 19 24 26 28 29 36 41 40
25 13 13 13 26 6 14 8 33 45 55 55 51 46 40 31 56 70 65 63 66 39 42 43 44 61 45 29 22 19 15 19 19 28 17 9 14 21 23 20 11 16 13 30 23 24 33 39 37
19 6 3 9 20 7 6 9 12 21 11 28 37 40 29 29 50 64 67 72 64 43 36 35 33 50 42 30 25 22 28 17 10 13 8 6 12 17 19 17 7 14 27 33 27 26 37 37 35
15 16 8 8 21 8 9 8 8 10 11 15 27 45 29 21 39 59 62 70 75 49 35 26 28 39 44 35 27 22 22 21 9 7 3 7 12 13 20 12 15 28 30 28 28 30 36 37 40
24 15 14 6 9 7 19 8 8 7 16 26 36 49 40 45 25 63 53 67 74 49 37 26 24 31 32 31 27 17 14 17 15 4 3 5 8 4 10 17 22 22 20 20 23 30 33 34 42
16 2 15 8 6 7 9 8 11 11 14 15 39 50 62 24 15 41 47 55 71 49 42 31 30 33 32 29 31 17 11 16 10 8 6 6 7 8 19 24 18 20 21 22 24 28 34 33 38
6 11 4 7 8 9 6 3 16 14 8 22 49 64 81 54 29 52 53 61 69 56 45 35 33 34 35 32 32 23 15 19 18 12 5 6 8 15 19 20 23 22 24 24 26 29 35 33 39
13 19 12 11 8 6 6 9 12 9 16 19 60 62 74 59 40 60 51 73 69 57 46 39 40 38 37 34 28 26 23 22 16 10 6 1 10 8 14 26 29 29 26 22 21 28 35 41 36
10 8 19 13 10 9 8 14 13 11 3 23 64 61 75 64 59 54 68 80 67 62 55 45 45 41 38 33 30 28 25 18 11 8 12 21 21 20 21 25 32 34 31 25 21 31 39 38 34
14 12 7 3 8 1 10 8 9 10 6 22 23 47 64 72 60 77 87 85 71 58 48 37 38 40 36 34 29 29 25 14 19 18 15 18 20 18 26 25 29 30 27 30 24 35 44 40 33
5 3 10 11 9 11 6 10 13 17 5 19 40 32 36 57 93 91 87 74 63 55 44 36 31 38 38 34 32 30 24 26 19 10 11 11 14 21 30 29 26 28 34 29 25 39 46 42 37
16 20 16 11 11 4 10 12 5 10 3 26 47 68 60 62 61 90 82 75 61 54 45 37 31 42 39 32 37 35 32 24 16 12 8 2 12 21 25 26 23 28 30 32 27 41 42 44 45
Wind_Direction_850mb
92 53 16 17 56 65 17 4 36 68 48 56 83 104 103 46 132 163 148 158 157 155 155 155 146 137 133 131 130 125 123 122 121 123 123 119 119 116 120 127 128 126 125 125 126 126 127 124 122
127 16 23 6 68 65 323 311 47 109 130 119 87 77 62 80 98 134 149 158 156 153 152 152 147 142 138 136 134 126 121 123 123 122 125 125 121 120 123 124 123 125 125 124 123 126 127 127 123
65 48 5 59 148 137 177 289 350 137 145 148 102 73 78 98 133 142 148 157 158 155 152 151 148 147 142 142 138 133 126 125 126 130 131 132 133 128 126 128 129 126 129 129 129 128 129 131 138
91 98 57 55 103 14 153 301 315 109 109 97 114 75 92 133 143 152 148 156 159 155 153 152 153 152 150 145 143 141 138 133 132 135 134 135 130 132 130 130 132 125 136 133 130 132 133 135 142
58 110 48 51 44 71 54 26 14 123 82 124 114 113 122 157 144 143 149 160 160 156 157 156 159 156 155 154 150 145 142 142 137 133 134 138 137 138 137 133 135 137 141 147 140 137 139 145 152
303 84 53 19 74 345 35 30 45 56 127 106 107 111 106 154 144 148 151 158 157 156 160 159 158 160 161 159 153 149 150 149 145 146 143 142 142 144 144 144 143 141 146 156 160 154 146 148 157
166 102 131 132 120 341 293 46 74 132 137 126 131 111 138 150 145 154 149 148 149 157 161 162 162 163 163 162 161 158 160 153 151 150 146 146 147 147 148 150 154 161 163 160 166 170 169 163 159
222 138 121 178 198 218 273 340 144 132 99 136 140 154 158 158 158 160 151 153 156 164 168 164 164 166 168 171 171 169 169 165 163 162 164 149 151 152 161 173 184 192 188 191 187 181 182 188 187
217 136 139 164 186 206 231 307 136 46 142 184 161 157 158 159 164 163 159 162 169 169 174 169 168 170 172 177 177 176 176 178 180 188 188 200 196 187 194 245 255 269 238 215 204 203 202 200 209
160 99 206 176 143 171 173 208 153 118 87 97 130 147 154 164 168 164 166 166 160 169 180 178 174 173 175 175 173 170 178 182 193 212 211 214 206 226 246 283 279 277 262 246 229 224 216 221 229
187 157 176 171 162 147 146 137 120 104 52 118 137 153 162 161 168 172 174 175 166 167 181 181 176 173 174 160 157 188 168 152 149 207 212 224 231 266 281 286 280 261 258 240 235 233 234 241 244
0 146 165 142 148 141 149 141 104 130 137 143 154 157 170 162 173 177 178 177 171 177 170 165 166 162 171 176 160 152 177 188 188 211 242 243 262 275 315 289 271 260 251 257 243 243 232 238 246
333 266 163 159 154 147 135 87 68 67 111 153 161 167 178 183 182 188 190 192 187 181 184 187 184 182 177 179 183 198 226 261 257 255 281 279 292 302 301 293 274 278 266 258 251 246 239 242 245
323 303 123 160 163 146 122 84 98 112 127 147 169 182 188 190 189 190 193 195 194 195 194 196 194 195 191 191 191 218 237 265 249 260 275 286 293 302 303 307 300 294 286 274 257 255 256 255 252
330 306 326 159 164 155 114 36 160 149 146 158 186 189 200 201 200 199 199 202 194 189 202 205 199 197 202 204 206 218 227 251 246 260 272 283 301 291 299 307 311 302 279 280 274 262 259 261 257
344 27 352 138 170 198 168 186 192 156 155 176 193 209 201 206 208 210 207 203 180 187 201 195 197 199 207 215 225 226 231 240 249 264 296 290 281 278 284 288 290 294 284 279 281 272 268 266 264
358 321 280 337 192 150 212 140 215 186 176 185 183 199 201 203 211 211 206 199 189 204 201 205 197 196 207 222 244 237 233 233 249 258 278 281 281 316 300 283 278 289 293 283 284 281 278 278 271
308 309 321 349 338 170 166 135 178 199 185 197 192 174 180 193 200 201 211 197 201 191 199 217 203 206 215 223 232 222 212 209 220 248 257 275 291 324 322 306 275 272 274 284 299 298 291 280 275
279 257 317 278 292 137 229 136 178 193 199 195 184 192 197 186 191 196 196 199 201 211 208 200 210 216 218 221 223 222 215 210 235 249 272 280 311 322 319 343 294 274 297 318 301 300 298 292 290
291 261 328 320 288 160 206 203 178 186 201 194 180 195 207 206 194 194 198 204 208 218 219 218 222 217 213 214 222 213 225 245 253 230 279 284 324 326 345 350 11 0 348 335 320 313 313 303 297
266 276 284 309 306 308 187 69 144 210 165 163 168 196 198 195 194 200 205 207 211 209 206 216 210 215 213 209 207 226 236 244 191 227 266 308 347 340 337 338 344 344 339 340 339 322 333 318 307
255 207 168 198 302 234 27 286 251 187 160 180 187 183 198 167 179 191 205 211 214 210 197 197 199 206 211 209 217 222 231 242 243 183 259 0 343 323 342 27 343 343 334 331 332 335 330 331 319
246 212 210 260 251 69 345 68 239 142 201 205 204 192 194 176 186 186 200 214 219 211 201 199 192 185 190 206 210 213 220 208 200 203 248 305 310 331 28 1 345 336 344 350 350 352 341 340 333
237 204 45 26 91 66 229 133 284 197 198 189 212 197 201 194 183 205 193 210 220 202 199 201 198 188 187 199 211 212 208 190 187 146 141 83 33 56 4 0 356 355 357 355 349 348 356 347 345
131 66 23 354 358 219 235 162 239 258 241 151 187 193 204 223 223 186 191 200 202 195 197 207 204 195 192 202 213 211 177 172 167 160 202 312 348 2 1 15 11 2 353 348 353 359 8 2 2
185 152 150 214 210 239 344 232 261 233 301 180 187 201 205 213 203 189 194 196 197 191 196 202 204 203 198 199 190 176 172 163 170 177 209 311 339 21 43 29 19 9 359 352 353 5 11 15 8
246 123 181 105 346 78 238 283 332 292 99 74 170 201 202 206 191 192 197 196 194 191 195 193 192 192 183 177 169 171 180 175 164 164 115 89 54 37 20 14 13 8 13 8 5 6 1 355 353
159 170 108 354 129 2 290 283 238 313 183 47 144 158 178 191 193 186 193 193 194 196 190 184 189 183 177 175 174 179 180 176 146 120 82 48 24 21 6 358 10 12 10 11 18 7 2 1 359
318 136 72 124 137 163 227 267 218 205 32 72 129 144 131 182 177 183 183 187 191 189 187 181 181 186 178 173 176 183 175 156 133 100 59 41 5 352 347 350 355 11 8 14 8 359 1 3 1
205 190 152 128 238 186 147 264 179 175 197 120 131 139 146 204 186 179 179 181 183 185 184 187 183 179 175 176 170 161 145 139 132 152 171 11 345 331 340 344 345 354 354 0 351 347 352 358 359